星链-33639 (STARLINK-33639)

导读

STARLINK-33639是美国于2025年4月6日发射的Starlink星链卫星,隶属于美国太空探索技术公司SpaceX的星链星座计划。该计划旨在构建全球卫星互联网星座,为全球不同地区提供高速低延迟的宽带互联网服务,尤其填补偏远地区网络覆盖空白。

基本信息
目录编号:
63481
目录名称:
STARLINK-33639
国际标识:
2025-070X
轨道中心:
EARTH
卫星名称:
星链-33639
卫星全名:
星链-33639 (STARLINK-33639)
卫星状态:
在轨 (已飞行516 天)
发射日期:
2025-04-06 UTC
国别 :
美国 (US)
星等 :
--
轨道信息
数据来源 国际轨道数据 AOE轨道数据
星历时间 2026-09-02T06:59:54+0800
2天前
查看轨道信息
2026-08-30T07:00:00+0800
5天前
查看轨道信息
半长轴 6861.161km 6861.073km
偏心率 0.0001191 0.0000067
轨道倾角 43.001° 43.004°
近地点辐角 269.820° 347.122°
升交点赤经 340.907° 357.849°
平近点角 90.251° 56.229°
近地点 482.206km 482.89km
远地点 483.842km 482.982km
周期 94.266分钟 94.264分钟
每日圈数 15.275885 15.27618
详细信息
固有亮度:
5
最大亮度:
2.5
卫星平台:
Starlink V1.0
覆盖范围:
全球
运营商:
太空探索技术公司
运营商所在国:
美国
制造商(研发单位):
太空探索技术公司
制造商所在国:
美国
使用方式:
暂无
卫星简介
Starlink 计划是 SpaceX 推出的全球卫星互联网项目,通过发射低轨道卫星,为全球尤其是偏远地区提供高速、低延迟的互联网服务。自 2019 年起,Starlink 已部署数千颗卫星,旨在缩小全球数字鸿沟,推动互联网普及。该项目还为军事、航空等行业提供通信支持,带来广泛经济效益。
2D轨道图
3D轨道图
轨道高度分析图
轨道倾角分析图
轨道综合分析图
查看轨道综合分析图
交会数据列表
事件ID 空间交会对象 最接近时刻(TCA) 交会距离 交会风险概率(CRP) 交会风险指数(CRI) 操作
CDM_260904-172705-797706-348121
2026-09-04T
17:27:52+0000
0.301 km
远距离
3.785111E-4 高风险 0.87
CDM_260905-113005-797706-348121
2026-09-05T
11:30:39+0000
0.496 km
远距离
1.410122E-4 高风险 0.78
CDM_260904-210705-638206-348122
2026-09-04T
21:07:27+0000
0.741 km
远距离
3.480339E-5 中风险 0.66
CDM_260905-071905-638206-348121
2026-09-05T
07:19:27+0000
0.827 km
远距离
2.438622E-5 中风险 0.63
CDM_260904-193305-638206-348122
2026-09-04T
19:33:18+0000
0.957 km
远距离
1.484382E-5 中风险 0.58
CDM_260904-155305-797706-348122
2026-09-04T
15:53:43+0000
1.152 km
极远距离
1.041287E-5 中风险 0.55
CDM_260905-085305-638206-348121
2026-09-05T
08:53:36+0000
1.275 km
极远距离
5.563821E-6 低风险 0.5
CDM_260905-130405-797706-348121
2026-09-05T
13:04:48+0000
1.461 km
极远距离
4.669466E-6 低风险 0.48
CDM_260904-190205-797706-348121
2026-09-04T
19:02:02+0000
1.742 km
极远距离
2.72804E-6 低风险 0.44
CDM_260905-095605-797706-348121
2026-09-05T
09:56:29+0000
2.095 km
极远距离
1.693272E-6 低风险 0.4